KD0RII Weather Reports


time (UTC)temp
F
wind
direction
speed
knots
gust
knots
rain 1hr
in
rain 24hr
in
rain mn
in
humidity
%
barometer
mb
20260510225513 70 80 0.0 0.0 0.00 0.00 0.00 38 1022.9
20260510225009 69 86 0.0 0.0 0.00 0.00 0.00 38 1022.6
20260510224505 69 37 0.0 0.0 0.00 0.00 0.00 37 1022.9
20260510224001 69 68 0.0 0.0 0.00 0.00 0.00 35 1022.6
20260510223459 69 79 0.0 0.0 0.00 0.00 0.00 37 1023.0
20260510222957 70 55 0.9 2.6 0.00 0.00 0.00 35 1022.9
20260510222455 71 98 0.0 0.0 0.00 0.00 0.00 37 1022.7
20260510221950 71 27 0.0 0.9 0.00 0.00 0.00 34 1022.8
20260510221446 72 88 0.0 0.0 0.00 0.00 0.00 32 1022.9
20260510220942 72 8 1.7 2.6 0.00 0.00 0.00 32 1022.9
20260510220438 71 78 2.6 3.5 0.00 0.00 0.00 33 1022.9
20260510215934 72 83 0.0 0.0 0.00 0.00 0.00 34 1022.7
20260510215432 71 62 3.5 3.5 0.00 0.00 0.00 34 1023.0
20260510214930 70 35 0.9 2.6 0.00 0.00 0.00 32 1023.0
20260510214426 72 69 3.5 6.1 0.00 0.00 0.00 31 1022.9
20260510213924 71 91 0.0 0.0 0.00 0.00 0.00 37 1023.0
20260510213420 71 93 0.0 0.0 0.00 0.00 0.00 37 1022.9
20260510212916 70 52 0.9 2.6 0.00 0.00 0.00 33 1023.1
20260510212414 70 1 2.6 3.5 0.00 0.00 0.00 33 1022.9
20260510211910 70 115 0.0 0.0 0.00 0.00 0.00 35 1023.0
20260510211407 70 85 0.0 0.9 0.00 0.00 0.00 35 1023.0
20260510210902 70 35 0.0 1.7 0.00 0.00 0.00 36 1023.0
20260510210357 69 65 1.7 2.6 0.00 0.00 0.00 34 1023.0
20260510205856 70 48 2.6 3.5 0.00 0.00 0.00 34 1023.0
20260510205352 69 86 0.0 0.0 0.00 0.00 0.00 37 1023.0
20260510204843 69 95 0.0 0.9 0.00 0.00 0.00 36 1023.0
20260510204339 69 75 0.9 1.7 0.00 0.00 0.00 35 1023.0
20260510203836 70 64 0.9 0.9 0.00 0.00 0.00 33 1023.1
20260510203333 70 48 0.9 1.7 0.00 0.00 0.00 36 1023.0
20260510202828 69 66 4.3 7.8 0.00 0.00 0.00 35 1023.2
20260510202324 68 102 1.7 3.5 0.00 0.00 0.00 37 1023.3
20260510201821 68 85 1.7 3.5 0.00 0.00 0.00 35 1023.4
20260510201318 68 36 1.7 2.6 0.00 0.00 0.00 37 1023.3
20260510200815 67 76 0.0 0.0 0.00 0.00 0.00 40 1023.4
20260510200313 68 74 0.9 1.7 0.00 0.00 0.00 39 1023.7
20260510195808 67 89 0.9 1.7 0.00 0.00 0.00 40 1023.7
20260510195306 67 68 0.9 0.9 0.00 0.00 0.00 40 1023.4
20260510194804 66 64 0.9 1.7 0.00 0.00 0.00 38 1023.3
20260510194301 66 29 3.5 5.2 0.00 0.00 0.00 37 1023.4
20260510193757 66 67 4.3 6.1 0.00 0.00 0.00 36 1023.7
20260510193253 66 28 0.9 0.9 0.00 0.00 0.00 39 1023.7
20260510192748 65 32 1.7 1.7 0.00 0.00 0.00 39 1023.8
20260510192244 65 83 0.9 2.6 0.00 0.00 0.00 42 1023.3
20260510191741 64 61 0.0 0.0 0.00 0.00 0.00 42 1023.6
20260510191236 64 75 2.6 3.5 0.00 0.00 0.00 39 1023.6
20260510190734 65 69 0.9 1.7 0.00 0.00 0.00 40 1023.7
20260510190231 66 124 0.0 0.0 0.00 0.00 0.00 41 1023.7
20260510185728 65 320 0.0 1.7 0.00 0.00 0.00 42 1023.6
20260510185226 64 68 1.7 2.6 0.00 0.00 0.00 40 1023.8
20260510184721 64 67 0.9 1.7 0.00 0.00 0.00 41 1023.8
20260510184218 64 67 1.7 2.6 0.00 0.00 0.00 38 1023.8
20260510183708 64 34 1.7 1.7 0.00 0.00 0.00 40 1023.8
20260510183203 64 89 0.0 0.0 0.00 0.00 0.00 42 1023.8
20260510182700 63 67 0.9 0.9 0.00 0.00 0.00 43 1024.0
20260510182155 63 55 0.9 0.9 0.00 0.00 0.00 42 1023.7
20260510181653 63 86 0.0 0.0 0.00 0.00 0.00 43 1024.0
20260510181149 62 73 0.0 0.0 0.00 0.00 0.00 43 1024.0
20260510180645 62 66 0.0 0.0 0.00 0.00 0.00 44 1023.9
20260510180143 61 92 0.0 0.0 0.00 0.00 0.00 44 1023.7
20260510175639 62 48 0.0 0.9 0.00 0.00 0.00 44 1023.8
20260510175135 61 68 0.0 0.9 0.00 0.00 0.00 45 1023.9
20260510174632 61 92 0.0 0.0 0.00 0.00 0.00 47 1023.9
20260510174130 61 99 0.0 0.0 0.00 0.00 0.00 46 1024.0
20260510173625 61 59 0.0 0.0 0.00 0.00 0.00 45 1024.0
20260510173122 62 86 0.0 0.9 0.00 0.00 0.00 45 1024.1
20260510172617 62 90 0.0 0.0 0.00 0.00 0.00 48 1024.1
20260510172114 62 92 0.0 0.0 0.00 0.00 0.00 45 1023.8
20260510171611 61 84 0.0 0.0 0.00 0.00 0.00 46 1024.1
20260510171108 61 103 0.9 2.6 0.00 0.00 0.00 44 1024.0
20260510170605 62 64 0.0 0.9 0.00 0.00 0.00 42 1024.1
20260510170101 63 74 0.0 0.0 0.00 0.00 0.00 43 1024.1
20260510165557 62 75 0.9 0.9 0.00 0.00 0.00 42 1024.1
20260510165052 62 68 0.0 1.7 0.00 0.00 0.00 43 1023.9
20260510164549 62 81 0.0 0.0 0.00 0.00 0.00 44 1023.8
20260510164046 63 57 0.9 1.7 0.00 0.00 0.00 42 1024.0
20260510163536 62 85 0.0 0.0 0.00 0.00 0.00 44 1024.0
20260510163033 61 48 0.0 0.9 0.00 0.00 0.00 46 1023.7
20260510162527 61 24 0.0 0.9 0.00 0.00 0.00 48 1023.9
20260510162019 61 56 0.0 0.0 0.00 0.00 0.00 45 1024.1
20260510161515 61 63 0.0 0.0 0.00 0.00 0.00 45 1024.1
20260510161011 61 86 0.0 0.0 0.00 0.00 0.00 46 1024.2
20260510160503 61 82 0.0 0.0 0.00 0.00 0.00 47 1024.0
20260510160002 60 86 0.0 0.0 0.00 0.00 0.00 46 1024.0
20260510155458 60 64 0.0 0.0 0.00 0.00 0.00 49 1024.0
20260510154955 60 78 0.0 0.9 0.00 0.00 0.00 47 1023.8
20260510154445 60 56 0.9 1.7 0.00 0.00 0.00 47 1023.6
20260510153944 60 32 0.9 1.7 0.00 0.00 0.00 49 1023.8
20260510153441 59 65 0.0 0.0 0.00 0.00 0.00 49 1023.7
20260510152937 59 39 0.0 0.0 0.00 0.00 0.00 50 1023.7
20260510152435 59 75 0.0 0.0 0.00 0.00 0.00 48 1023.4
20260510151931 59 84 0.0 0.0 0.00 0.00 0.00 48 1023.3
20260510151429 59 91 0.0 0.0 0.00 0.00 0.00 49 1023.1
20260510150925 59 86 0.0 0.0 0.00 0.00 0.00 48 1023.1
20260510150420 59 87 0.0 0.9 0.00 0.00 0.00 46 1023.1
20260510145916 59 68 0.0 0.0 0.00 0.00 0.00 46 1023.2
20260510145413 59 65 0.0 0.0 0.00 0.00 0.00 47 1023.1
20260510144909 59 86 1.7 1.7 0.00 0.00 0.00 46 1022.8
20260510144406 59 99 0.0 0.0 0.00 0.00 0.00 46 1022.8
20260510143901 59 92 1.7 3.5 0.00 0.00 0.00 45 1022.7
20260510143357 59 90 1.7 2.6 0.00 0.00 0.00 44 1022.7
20260510142855 59 44 0.0 0.0 0.00 0.00 0.00 47 1022.4
20260510142351 59 87 0.0 0.0 0.00 0.00 0.00 51 1022.6
20260510141848 59 84 1.7 3.5 0.00 0.00 0.00 47 1022.6
20260510141345 58 71 0.0 0.9 0.00 0.00 0.00 47 1022.7
20260510140842 58 88 0.0 0.0 0.00 0.00 0.00 49 1022.5
20260510140338 58 65 1.7 1.7 0.00 0.00 0.00 47 1022.7
20260510135831 58 90 0.0 0.0 0.00 0.00 0.00 50 1022.6
20260510135327 58 69 0.0 0.0 0.00 0.00 0.00 49 1022.6
20260510134825 57 90 0.0 0.0 0.00 0.00 0.00 49 1022.7
20260510134322 57 32 5.2 7.0 0.00 0.00 0.00 47 1022.5
20260510133818 57 51 3.5 6.1 0.00 0.00 0.00 47 1022.7
20260510133314 57 61 0.0 0.9 0.00 0.00 0.00 48 1022.7
20260510132810 57 64 1.7 1.7 0.00 0.00 0.00 49 1022.7
20260510132308 57 82 0.9 1.7 0.00 0.00 0.00 49 1022.5
20260510131805 57 47 2.6 3.5 0.00 0.00 0.00 49 1022.4
20260510131303 57 46 1.7 3.5 0.00 0.00 0.00 49 1022.4
20260510130759 56 50 0.9 2.6 0.00 0.00 0.00 50 1022.2
20260510130256 57 67 1.7 2.6 0.00 0.00 0.00 50 1021.8
20260510125752 57 79 0.0 0.0 0.00 0.00 0.00 50 1022.1
20260510125248 57 92 0.0 0.0 0.00 0.00 0.00 49 1021.9
20260510124745 57 74 2.6 6.1 0.00 0.00 0.00 49 1021.9
20260510124243 57 79 0.0 0.0 0.00 0.00 0.00 51 1021.5
20260510123738 57 77 1.7 2.6 0.00 0.00 0.00 50 1021.3
20260510123234 57 69 0.0 0.9 0.00 0.00 0.00 50 1021.2
20260510122730 57 59 0.9 1.7 0.00 0.00 0.00 50 1020.9
20260510122227 57 88 0.0 0.9 0.00 0.00 0.00 50 1021.0
20260510121723 57 79 0.0 0.9 0.00 0.00 0.00 51 1020.6
20260510121221 56 41 3.5 3.5 0.00 0.00 0.00 50 1020.5
20260510120718 56 85 0.0 0.0 0.00 0.00 0.00 53 1020.2
20260510120214 56 72 1.7 3.5 0.00 0.00 0.00 52 1020.4
20260510115710 56 83 0.0 0.0 0.00 0.00 0.00 53 1020.2
20260510115209 56 58 0.9 1.7 0.00 0.00 0.00 54 1020.2
20260510114703 56 93 0.9 1.7 0.00 0.00 0.00 53 1020.0
20260510114200 56 57 2.6 3.5 0.00 0.00 0.00 54 1019.9
20260510113655 56 88 0.9 1.7 0.00 0.00 0.00 54 1019.9
20260510113153 56 58 0.0 0.0 0.00 0.00 0.00 55 1019.7
20260510112649 56 74 0.9 0.9 0.00 0.00 0.00 55 1019.8
20260510112146 56 71 2.6 3.5 0.00 0.00 0.00 55 1019.7
20260510111642 56 55 0.9 1.7 0.00 0.00 0.00 56 1019.7
20260510111139 56 60 1.7 2.6 0.00 0.00 0.00 56 1019.6
20260510110634 57 52 0.0 0.0 0.00 0.00 0.00 56 1019.5
20260510110131 57 58 1.7 3.5 0.00 0.00 0.00 55 1019.3
20260510105626 57 63 0.9 1.7 0.00 0.00 0.00 56 1019.2
20260510105121 57 77 0.9 1.7 0.00 0.00 0.00 56 1019.2
20260510104618 57 73 0.0 0.0 0.00 0.00 0.00 56 1019.2
20260510104114 57 108 0.9 1.7 0.00 0.00 0.00 55 1019.0
20260510103612 58 79 1.7 1.7 0.00 0.00 0.00 55 1018.9
20260510103107 58 71 0.0 0.0 0.00 0.00 0.00 55 1019.1
20260510102603 58 51 0.9 1.7 0.00 0.00 0.00 56 1018.7
20260510102059 58 87 0.0 0.0 0.00 0.00 0.00 58 1018.4
20260510101557 58 85 1.7 2.6 0.00 0.00 0.00 57 1018.2
20260510101055 58 62 2.6 5.2 0.00 0.00 0.00 59 1018.3
20260510100551 58 68 0.0 0.9 0.00 0.00 0.00 61 1018.2
20260510100049 58 80 0.0 0.9 0.00 0.00 0.00 62 1018.3
20260510095545 57 34 1.7 3.5 0.00 0.00 0.00 63 1018.4
20260510095044 57 71 1.7 2.6 0.00 0.00 0.00 65 1018.3
20260510094544 58 82 0.0 0.0 0.00 0.00 0.00 66 1018.1
20260510094039 58 86 0.0 0.9 0.00 0.00 0.00 67 1018.2
20260510093535 58 74 0.0 0.9 0.00 0.00 0.00 66 1017.9
20260510093033 58 82 0.0 0.9 0.00 0.00 0.00 66 1018.0
20260510092530 59 71 1.7 2.6 0.00 0.00 0.00 65 1017.7
20260510092029 59 75 1.7 1.7 0.00 0.00 0.00 66 1017.9
20260510091526 59 115 0.0 0.9 0.00 0.00 0.00 67 1017.5
20260510091022 59 77 0.9 0.9 0.00 0.00 0.00 68 1017.6
20260510090520 59 71 2.6 2.6 0.00 0.00 0.00 69 1017.9
20260510090015 59 73 0.0 0.0 0.00 0.00 0.00 69 1017.7
20260510085515 59 73 0.0 0.0 0.00 0.00 0.00 70 1017.8
20260510085012 59 77 0.0 0.0 0.00 0.00 0.00 70 1018.0
20260510084509 58 71 0.0 0.9 0.00 0.00 0.00 70 1017.9
20260510084005 58 83 0.0 0.0 0.00 0.00 0.00 70 1017.7
20260510083502 59 87 0.0 0.0 0.00 0.00 0.00 69 1017.5
20260510082957 59 84 0.0 0.0 0.00 0.00 0.00 69 1017.3
20260510082455 59 66 0.0 0.9 0.00 0.00 0.00 68 1017.1
20260510081955 59 80 0.0 0.0 0.00 0.00 0.00 68 1017.3
20260510081450 59 86 0.0 0.0 0.00 0.00 0.00 68 1017.2
20260510080947 60 49 0.9 1.7 0.00 0.00 0.00 67 1016.9
20260510080445 60 85 0.0 0.0 0.00 0.00 0.00 67 1017.1
20260510075942 60 72 0.9 1.7 0.00 0.00 0.00 67 1016.7
20260510075440 60 80 0.0 0.9 0.00 0.00 0.00 66 1016.7
20260510074937 60 85 0.0 0.0 0.00 0.00 0.00 66 1016.4
20260510074434 60 75 1.7 2.6 0.00 0.00 0.00 66 1016.5
20260510073930 61 79 0.9 0.9 0.00 0.00 0.00 66 1016.3
20260510073426 61 68 0.9 1.7 0.00 0.00 0.00 66 1016.5
20260510072922 61 75 0.9 0.9 0.00 0.00 0.00 66 1016.5
20260510072420 61 79 0.9 1.7 0.00 0.00 0.00 66 1016.4
20260510071915 60 27 0.0 1.7 0.00 0.00 0.00 68 1016.3
20260510071411 60 79 0.9 0.9 0.00 0.00 0.00 70 1016.3
20260510070910 59 77 0.0 0.0 0.00 0.00 0.00 72 1016.2
20260510070407 59 77 0.9 1.7 0.00 0.00 0.00 72 1016.2
20260510065902 59 87 0.0 0.0 0.00 0.00 0.00 72 1016.2
20260510065359 60 75 0.0 0.0 0.00 0.00 0.00 72 1016.2
20260510064855 59 38 0.9 2.6 0.00 0.00 0.00 73 1015.9
20260510064353 59 55 1.7 1.7 0.00 0.00 0.00 74 1015.8
20260510063849 59 86 0.0 0.0 0.00 0.00 0.00 74 1015.6
20260510063346 59 86 0.0 0.0 0.00 0.00 0.00 74 1015.7
20260510062843 59 82 0.0 0.0 0.00 0.00 0.00 75 1015.9
20260510062338 59 96 0.0 0.0 0.00 0.00 0.00 77 1015.6
20260510061834 58 82 0.0 0.0 0.00 0.00 0.00 78 1015.8
20260510061331 58 83 0.0 0.0 0.00 0.00 0.00 79 1015.7
20260510060826 58 88 0.0 0.0 0.00 0.00 0.00 80 1015.7
20260510060324 58 86 0.0 0.0 0.00 0.00 0.00 79 1015.7
20260510055821 58 91 0.0 0.0 0.00 0.00 0.00 78 1015.6
20260510055319 58 90 0.0 0.0 0.00 0.00 0.00 78 1015.6
20260510054819 59 90 0.0 0.0 0.00 0.00 0.00 76 1015.7
20260510054315 59 90 0.0 0.0 0.00 0.00 0.00 74 1015.4
20260510053809 60 90 0.0 0.0 0.00 0.00 0.00 74 1015.6
20260510053300 60 90 0.0 0.0 0.00 0.00 0.00 73 1015.6
20260510052756 61 90 0.0 0.0 0.00 0.00 0.00 73 1015.5
20260510052252 61 86 0.0 0.0 0.00 0.00 0.00 73 1015.6
20260510051748 60 79 0.0 0.0 0.00 0.00 0.00 75 1015.4
20260510051245 60 83 0.0 0.0 0.00 0.00 0.00 77 1015.5
20260510050741 60 82 0.0 0.0 0.00 0.00 0.00 77 1015.5
20260510050238 60 80 0.0 0.0 0.00 0.00 0.00 76 1015.4
20260510045735 60 93 0.0 0.0 0.00 0.00 0.00 75 1015.4
20260510045232 60 93 0.0 0.0 0.00 0.00 0.00 74 1015.3
20260510044728 60 93 0.0 0.0 0.00 0.00 0.00 73 1015.2
20260510044227 61 93 0.0 0.0 0.00 0.00 0.00 72 1015.1
20260510043721 61 93 0.0 0.0 0.00 0.00 0.00 72 1014.9
20260510043218 62 93 0.0 0.0 0.00 0.00 0.00 71 1015.1
20260510042715 62 93 0.0 0.0 0.00 0.00 0.00 70 1014.8
20260510042212 63 93 0.0 0.0 0.00 0.00 0.00 69 1014.9
20260510041709 63 93 0.0 0.0 0.00 0.00 0.00 69 1014.8
20260510041201 64 93 0.0 0.0 0.00 0.00 0.00 67 1014.8
20260510040658 64 93 0.0 0.0 0.00 0.00 0.00 67 1014.8
20260510040154 64 93 0.0 0.0 0.00 0.00 0.00 67 1014.8
20260510035650 65 94 0.0 0.0 0.00 0.00 0.00 67 1015.0
20260510035145 65 94 0.0 0.0 0.00 0.00 0.00 66 1014.8
20260510034642 65 94 0.0 0.0 0.00 0.00 0.00 64 1014.8
20260510034139 66 94 0.0 0.0 0.00 0.00 0.00 62 1015.0
20260510033635 66 93 0.0 0.0 0.00 0.00 0.00 61 1014.3
20260510033134 66 93 0.0 0.0 0.00 0.00 0.00 59 1014.2
20260510032630 67 93 0.0 0.0 0.00 0.00 0.00 58 1014.0
20260510032125 67 94 0.0 0.0 0.00 0.00 0.00 57 1013.8
20260510031620 68 92 0.0 0.0 0.00 0.00 0.00 56 1013.7
20260510031116 68 86 0.0 0.0 0.00 0.00 0.00 55 1013.6
20260510030611 68 88 0.0 0.0 0.00 0.00 0.00 54 1013.3
20260510030110 69 87 0.0 0.0 0.00 0.00 0.00 53 1013.5
20260510025606 69 86 0.0 0.0 0.00 0.00 0.00 53 1013.5
20260510025104 69 97 0.0 0.0 0.00 0.00 0.00 52 1013.3
20260510024601 70 92 0.0 0.0 0.00 0.00 0.00 52 1013.2
20260510024056 70 61 1.7 2.6 0.00 0.00 0.00 50 1013.0
20260510023553 70 91 0.0 0.0 0.00 0.00 0.00 51 1013.2
20260510023051 70 61 0.0 0.9 0.00 0.00 0.00 51 1013.1
20260510022549 70 85 0.0 0.0 0.00 0.00 0.00 51 1012.8
20260510022043 70 82 0.9 1.7 0.00 0.00 0.00 51 1012.8
20260510021540 70 95 0.0 0.0 0.00 0.00 0.00 51 1012.5
20260510021038 70 76 0.0 0.0 0.00 0.00 0.00 52 1012.5
20260510020532 70 79 0.0 0.0 0.00 0.00 0.00 51 1012.6
20260510020028 71 84 0.0 0.0 0.00 0.00 0.00 51 1012.3
20260510015523 71 85 0.0 0.0 0.00 0.00 0.00 51 1012.2
20260510015020 71 81 0.0 0.0 0.00 0.00 0.00 50 1012.0
20260510014516 71 82 0.0 0.0 0.00 0.00 0.00 51 1011.6
20260510014014 71 84 0.9 0.9 0.00 0.00 0.00 50 1011.6
20260510013508 71 66 0.0 0.0 0.00 0.00 0.00 50 1011.8
20260510013004 72 85 0.0 0.0 0.00 0.00 0.00 49 1011.5
20260510012459 72 90 0.0 0.0 0.00 0.00 0.00 48 1011.6
20260510011954 73 86 0.0 0.0 0.00 0.00 0.00 48 1011.4
20260510011449 73 88 0.0 0.0 0.00 0.00 0.00 48 1011.4
20260510010945 73 36 0.0 0.0 0.00 0.00 0.00 47 1011.2
20260510010443 74 93 0.0 0.0 0.00 0.00 0.00 47 1011.3
20260510005939 74 31 1.7 1.7 0.00 0.00 0.00 45 1011.2
20260510005435 73 44 1.7 2.6 0.00 0.00 0.00 45 1010.8
20260510004933 73 67 0.9 0.9 0.00 0.00 0.00 48 1011.1
20260510004430 73 93 0.0 0.0 0.00 0.00 0.00 48 1010.8
20260510003928 74 92 0.0 0.0 0.00 0.00 0.00 47 1010.6
20260510003425 75 93 0.0 0.0 0.00 0.00 0.00 45 1010.6
20260510002924 76 85 0.0 0.0 0.00 0.00 0.00 45 1010.4
20260510002421 76 89 0.0 0.0 0.00 0.00 0.00 44 1010.5
20260510001917 77 85 0.0 0.0 0.00 0.00 0.00 44 1010.5
20260510001415 77 78 0.0 0.0 0.00 0.00 0.00 43 1010.4
20260510000912 78 73 0.0 0.0 0.00 0.00 0.00 44 1010.4
20260510000411 79 44 0.9 1.7 0.00 0.00 0.00 43 1010.0
20260509235905 80 82 0.0 0.0 0.00 0.00 0.00 43 1010.4
20260509235402 81 84 0.0 0.0 0.00 0.00 0.00 44 1010.3
20260509234858 82 84 0.0 0.0 0.00 0.00 0.00 41 1010.3
20260509234355 84 79 0.0 0.0 0.00 0.00 0.00 40 1010.2
20260509233853 85 87 0.0 0.0 0.00 0.00 0.00 39 1010.3
20260509233351 84 92 0.0 0.0 0.00 0.00 0.00 41 1009.8
20260509232846 82 86 0.0 0.0 0.00 0.00 0.00 45 1010.0
20260509232345 82 84 0.0 0.0 0.00 0.00 0.00 42 1010.2
20260509231840 82 94 0.0 0.0 0.00 0.00 0.00 40 1010.2
20260509231337 83 94 0.0 0.0 0.00 0.00 0.00 39 1010.2
20260509230835 84 95 0.0 0.0 0.00 0.00 0.00 37 1010.2
20260509230332 85 94 0.0 0.0 0.00 0.00 0.00 38 1009.7
20260509225827 85 88 0.0 0.0 0.00 0.00 0.00 37 1009.9